Temp
65 65 65 65 64 65 63 64 65 65 64 65 63 63 64 64 66 66 66 65 66 66 66 66 66 65 66 65 64 64 64 63 63 63 62 62 61 61 62 61 61 60
65 65 65 65 65 65 64 64 65 65 65 65 64 64 64 65 65 66 65 65 65 65 66 66 66 66 65 65 64 63 62 63 62 65 63 62 61 62 61 61 61 61
65 66 65 64 64 66 66 66 65 65 65 65 65 65 65 66 65 66 65 65 65 65 65 65 65 65 65 65 65 63 63 62 62 63 63 62 61 61 61 61 61 61
65 65 65 65 65 66 67 66 66 65 65 64 64 66 66 66 65 66 65 66 65 65 65 65 65 65 65 65 64 63 63 62 63 63 63 62 62 61 61 61 62 61
65 66 66 65 66 66 66 66 66 66 65 64 65 65 65 65 65 65 65 65 65 65 65 65 65 64 64 64 64 62 63 61 63 63 62 62 62 62 62 61 61 60
66 67 66 66 65 65 65 65 66 66 66 65 64 65 64 66 66 65 66 65 66 65 66 65 65 65 65 65 63 62 62 62 62 63 63 62 62 62 62 61 61 61
64 65 65 65 65 65 65 64 65 65 65 65 66 65 65 65 65 66 66 65 66 66 66 64 64 64 63 63 62 62 62 62 63 63 62 62 62 62 63 62 61 61
64 65 65 64 64 64 64 65 64 64 65 65 64 65 65 65 66 66 66 66 65 66 65 65 65 65 64 63 62 62 62 63 62 62 62 62 61 61 61 61 61 60
64 64 64 64 63 63 63 64 64 65 66 65 64 64 65 65 65 65 65 66 65 64 64 64 63 63 62 63 62 62 62 62 62 62 61 60 60 61 62 62 60 59
64 64 64 64 63 63 63 63 64 64 65 65 65 65 65 64 65 66 65 65 64 64 63 63 62 61 61 61 61 62 62 62 62 61 62 62 61 61 62 61 60 58
63 64 63 63 63 63 63 64 64 64 64 65 64 64 65 64 65 65 64 65 63 63 62 61 60 60 59 58 59 60 61 61 62 62 61 62 61 61 62 61 60 58
63 63 63 63 63 63 63 64 64 65 65 64 65 64 64 65 65 64 64 65 64 63 62 61 59 58 56 56 57 58 58 58 60 61 61 62 62 62 62 61 60 59
63 63 63 63 62 63 63 64 64 64 65 64 64 64 64 64 65 65 64 65 63 63 61 59 58 56 54 54 55 56 56 57 59 60 61 61 62 62 62 61 61 60
64 64 64 63 63 63 63 63 64 64 64 64 64 63 63 64 64 64 64 64 62 62 60 58 57 54 52 52 52 53 54 56 57 60 60 60 60 62 62 62 61 60
64 64 64 63 64 64 63 63 63 63 64 64 64 63 63 64 64 64 64 64 63 61 60 58 55 53 51 48 49 50 52 54 55 58 59 59 60 61 61 61 61 60
65 64 64 64 63 63 63 63 63 63 63 63 63 63 63 63 63 63 63 63 62 61 58 56 54 52 49 46 46 47 50 52 54 57 59 59 58 58 59 60 60 61
64 64 64 64 63 63 62 64 63 63 63 62 62 62 62 62 62 62 61 61 61 60 57 55 53 50 45 43 43 44 48 49 52 56 59 58 58 57 57 57 58 61
65 65 65 64 63 64 64 64 63 63 62 62 61 61 61 61 60 61 61 60 61 60 56 54 52 46 42 43 43 43 45 48 52 56 58 57 57 56 56 56 56 57
66 65 65 64 64 64 63 63 63 63 62 61 60 61 60 60 60 60 60 60 60 58 55 53 51 45 42 43 43 42 43 46 53 56 57 56 56 56 55 54 54 54
66 66 65 64 64 63 63 63 63 62 61 61 60 60 59 59 59 59 59 59 59 58 54 52 49 45 42 42 42 42 42 45 53 57 58 57 56 55 54 53 52 53
67 66 65 64 64 63 62 63 62 60 61 61 61 60 60 59 59 58 59 59 59 59 54 51 48 43 42 42 42 41 42 48 56 60 58 57 56 55 54 53 52 53
67 65 64 64 63 63 62 62 60 60 60 61 60 60 60 60 59 60 59 58 59 58 56 51 47 41 42 42 42 41 44 55 55 57 57 58 57 55 54 53 52 51
68 66 64 63 63 62 62 61 60 60 60 61 59 59 59 59 58 59 59 58 57 57 56 52 49 43 41 41 41 40 46 53 54 57 57 57 57 55 52 51 51 50
68 67 64 64 63 62 62 60 60 60 60 61 60 58 58 58 60 59 59 58 57 56 55 54 48 45 42 42 41 41 46 51 54 57 57 56 57 55 52 50 50 50
68 67 65 64 63 63 61 60 60 60 60 61 60 60 59 60 61 59 58 58 57 57 58 56 51 48 43 41 41 41 44 50 55 56 54 54 56 55 53 50 49 49
67 65 64 64 64 62 61 60 61 60 59 59 60 61 60 61 61 59 58 57 57 56 55 54 53 49 45 41 41 42 42 49 53 51 51 52 53 56 55 54 54 52
MSLP
1015.99 1015.99 1016.03 1016.03 1016.19 1016.15 1016.19 1016.03 1015.79 1015.71 1015.87 1015.87 1015.95 1015.99 1015.75 1015.75 1015.63 1015.51 1015.43 1015.35 1015.15 1014.99 1014.87 1014.79 1014.67 1014.55 1014.39 1014.23 1014.11 1014.07 1014.03 1013.91 1013.71 1013.51 1013.39 1013.27 1013.11 1012.91 1012.71 1012.43 1012.19 1011.99
1016.03 1016.11 1016.15 1016.15 1016.15 1016.11 1016.07 1016.11 1015.95 1015.91 1015.87 1015.87 1015.91 1015.95 1015.79 1015.67 1015.71 1015.55 1015.47 1015.43 1015.19 1015.03 1014.87 1014.79 1014.71 1014.59 1014.47 1014.35 1014.19 1014.15 1014.15 1014.03 1013.91 1013.59 1013.47 1013.35 1013.19 1013.03 1012.87 1012.55 1012.35 1012.11
1016.11 1016.07 1016.19 1016.31 1016.23 1016.07 1016.03 1016.03 1015.99 1015.99 1016.07 1016.03 1015.91 1015.87 1015.83 1015.63 1015.67 1015.47 1015.39 1015.31 1015.19 1015.03 1014.91 1014.79 1014.71 1014.63 1014.51 1014.43 1014.31 1014.27 1014.19 1014.11 1014.03 1013.75 1013.59 1013.51 1013.27 1013.19 1012.95 1012.71 1012.47 1012.27
1016.19 1016.23 1016.23 1016.23 1016.19 1016.15 1016.03 1015.87 1015.95 1015.91 1016.03 1016.15 1016.07 1015.87 1015.83 1015.75 1015.55 1015.47 1015.35 1015.23 1015.11 1014.99 1014.91 1014.83 1014.75 1014.71 1014.63 1014.47 1014.39 1014.35 1014.27 1014.19 1013.99 1013.79 1013.75 1013.59 1013.43 1013.23 1013.07 1012.87 1012.63 1012.47
1016.19 1016.19 1016.19 1016.27 1016.27 1016.19 1016.11 1016.03 1016.03 1015.99 1015.99 1016.03 1016.03 1015.91 1015.87 1015.71 1015.55 1015.55 1015.35 1015.27 1015.07 1015.03 1014.87 1014.79 1014.75 1014.71 1014.67 1014.59 1014.43 1014.43 1014.31 1014.23 1013.99 1013.83 1013.83 1013.79 1013.55 1013.35 1013.15 1013.03 1012.87 1012.71
1016.11 1016.15 1016.23 1016.35 1016.35 1016.31 1016.27 1016.31 1016.23 1016.11 1016.11 1015.99 1016.03 1016.03 1015.91 1015.67 1015.59 1015.59 1015.39 1015.23 1015.07 1015.03 1014.95 1014.87 1014.83 1014.79 1014.71 1014.67 1014.55 1014.51 1014.39 1014.35 1014.19 1013.99 1013.95 1013.95 1013.71 1013.47 1013.31 1013.19 1013.11 1012.95
1016.31 1016.31 1016.31 1016.39 1016.43 1016.39 1016.35 1016.47 1016.43 1016.35 1016.27 1016.11 1015.95 1016.03 1015.91 1015.75 1015.67 1015.51 1015.47 1015.35 1015.19 1015.07 1015.03 1015.07 1015.03 1014.95 1014.83 1014.79 1014.67 1014.63 1014.55 1014.43 1014.27 1014.15 1014.15 1014.03 1013.83 1013.67 1013.43 1013.35 1013.35 1013.19
1016.23 1016.27 1016.39 1016.47 1016.55 1016.51 1016.43 1016.43 1016.51 1016.47 1016.27 1016.15 1016.07 1015.99 1015.87 1015.87 1015.83 1015.67 1015.43 1015.43 1015.43 1015.27 1015.19 1015.23 1015.19 1015.15 1014.99 1014.83 1014.75 1014.75 1014.63 1014.47 1014.39 1014.27 1014.19 1014.07 1013.95 1013.83 1013.59 1013.47 1013.55 1013.51
1016.19 1016.31 1016.39 1016.51 1016.59 1016.63 1016.63 1016.55 1016.55 1016.47 1016.31 1016.23 1016.23 1016.19 1015.95 1015.95 1015.91 1015.79 1015.67 1015.59 1015.59 1015.51 1015.51 1015.55 1015.55 1015.47 1015.27 1015.15 1014.99 1014.83 1014.75 1014.63 1014.47 1014.43 1014.35 1014.23 1014.15 1013.99 1013.79 1013.71 1013.75 1013.75
1016.19 1016.31 1016.39 1016.43 1016.51 1016.63 1016.67 1016.63 1016.55 1016.51 1016.39 1016.27 1016.31 1016.23 1016.15 1015.99 1015.91 1015.91 1015.79 1015.67 1015.71 1015.75 1015.83 1015.91 1015.95 1015.87 1015.71 1015.63 1015.55 1015.19 1014.91 1014.79 1014.67 1014.59 1014.51 1014.35 1014.23 1014.07 1013.95 1013.99 1013.99 1014.03
1016.19 1016.27 1016.39 1016.51 1016.59 1016.63 1016.67 1016.55 1016.55 1016.51 1016.47 1016.39 1016.35 1016.27 1016.19 1016.03 1015.99 1015.99 1015.95 1015.87 1015.95 1016.03 1016.11 1016.23 1016.35 1016.39 1016.31 1016.19 1015.95 1015.67 1015.39 1015.11 1014.83 1014.71 1014.55 1014.43 1014.27 1014.11 1014.07 1014.11 1014.15 1014.23
1016.19 1016.23 1016.39 1016.47 1016.51 1016.59 1016.59 1016.55 1016.51 1016.47 1016.35 1016.43 1016.39 1016.39 1016.23 1016.15 1016.11 1016.07 1016.07 1015.99 1016.11 1016.23 1016.39 1016.55 1016.71 1016.83 1016.87 1016.75 1016.47 1016.15 1015.87 1015.67 1015.15 1014.87 1014.71 1014.55 1014.43 1014.27 1014.15 1014.15 1014.27 1014.39
1016.15 1016.23 1016.31 1016.39 1016.51 1016.55 1016.51 1016.43 1016.51 1016.55 1016.43 1016.51 1016.47 1016.43 1016.35 1016.31 1016.23 1016.15 1016.07 1016.11 1016.31 1016.43 1016.67 1016.87 1017.07 1017.19 1017.27 1017.11 1016.91 1016.59 1016.35 1016.03 1015.55 1015.07 1014.95 1014.79 1014.59 1014.43 1014.31 1014.35 1014.35 1014.51
1016.07 1016.19 1016.23 1016.31 1016.43 1016.43 1016.51 1016.51 1016.51 1016.55 1016.51 1016.55 1016.51 1016.55 1016.55 1016.43 1016.43 1016.31 1016.19 1016.19 1016.43 1016.63 1016.91 1017.15 1017.35 1017.51 1017.59 1017.51 1017.31 1017.03 1016.75 1016.27 1015.95 1015.31 1015.11 1014.95 1014.79 1014.59 1014.47 1014.43 1014.39 1014.51
1016.07 1016.11 1016.23 1016.35 1016.35 1016.39 1016.51 1016.59 1016.63 1016.59 1016.51 1016.51 1016.47 1016.55 1016.63 1016.55 1016.43 1016.43 1016.39 1016.35 1016.47 1016.75 1017.07 1017.39 1017.63 1017.83 1018.07 1018.11 1017.79 1017.31 1017.03 1016.63 1016.27 1015.71 1015.23 1015.15 1015.03 1014.87 1014.71 1014.63 1014.55 1014.63
1015.95 1016.07 1016.23 1016.27 1016.35 1016.39 1016.47 1016.51 1016.55 1016.59 1016.55 1016.51 1016.59 1016.59 1016.63 1016.63 1016.59 1016.59 1016.55 1016.55 1016.63 1016.83 1017.27 1017.67 1017.95 1018.07 1018.19 1018.15 1018.15 1017.95 1017.39 1016.99 1016.51 1015.91 1015.39 1015.39 1015.27 1015.23 1015.11 1015.03 1014.83 1014.71
1015.79 1015.95 1016.07 1016.23 1016.23 1016.35 1016.43 1016.43 1016.51 1016.55 1016.55 1016.59 1016.67 1016.67 1016.71 1016.71 1016.75 1016.75 1016.79 1016.79 1016.75 1016.95 1017.43 1017.83 1018.15 1018.35 1018.23 1017.99 1017.67 1017.63 1017.55 1017.15 1016.79 1016.11 1015.63 1015.67 1015.63 1015.63 1015.59 1015.59 1015.35 1015.03
1015.59 1015.71 1015.91 1016.07 1016.23 1016.31 1016.27 1016.35 1016.47 1016.47 1016.55 1016.59 1016.67 1016.71 1016.75 1016.79 1016.87 1016.91 1016.87 1016.87 1016.87 1017.11 1017.59 1017.95 1018.27 1018.51 1018.23 1018.03 1017.79 1017.47 1017.51 1017.27 1016.83 1016.23 1015.83 1015.95 1016.03 1016.07 1016.07 1016.07 1015.95 1015.55
1015.35 1015.55 1015.67 1015.99 1016.03 1016.07 1016.23 1016.35 1016.39 1016.43 1016.55 1016.67 1016.75 1016.75 1016.79 1016.87 1016.95 1016.95 1016.99 1016.99 1016.95 1017.23 1017.83 1018.19 1018.39 1018.63 1018.27 1018.03 1017.87 1017.59 1017.27 1017.11 1016.83 1016.31 1015.91 1016.11 1016.31 1016.43 1016.51 1016.47 1016.39 1016.11
1015.15 1015.27 1015.55 1015.79 1015.91 1016.11 1016.23 1016.31 1016.39 1016.55 1016.67 1016.71 1016.75 1016.75 1016.83 1016.91 1016.95 1017.07 1017.07 1017.11 1017.07 1017.27 1017.99 1018.39 1018.67 1018.75 1018.39 1018.07 1017.91 1017.63 1017.31 1017.07 1016.71 1016.19 1015.91 1016.07 1016.35 1016.51 1016.67 1016.67 1016.67 1016.55
1015.03 1015.15 1015.39 1015.63 1015.87 1016.07 1016.15 1016.23 1016.47 1016.71 1016.71 1016.71 1016.63 1016.67 1016.71 1016.79 1016.91 1017.07 1017.11 1017.11 1017.15 1017.19 1017.91 1018.47 1018.87 1018.87 1018.43 1018.19 1017.95 1017.67 1017.27 1016.83 1016.47 1015.95 1015.95 1015.99 1016.23 1016.51 1016.71 1016.79 1016.75 1016.79
1014.87 1015.15 1015.31 1015.55 1015.71 1015.95 1016.07 1016.23 1016.55 1016.67 1016.71 1016.75 1016.75 1016.75 1016.75 1016.79 1016.91 1016.91 1017.03 1017.11 1017.23 1017.27 1017.63 1018.43 1018.83 1018.83 1018.51 1018.35 1018.11 1017.75 1017.39 1016.83 1016.55 1016.15 1015.87 1015.99 1016.07 1016.63 1016.83 1016.91 1016.99 1017.03
1014.67 1015.03 1015.31 1015.47 1015.59 1015.83 1015.99 1016.23 1016.47 1016.63 1016.75 1016.75 1016.83 1016.87 1016.91 1016.91 1016.95 1016.99 1017.03 1017.23 1017.39 1017.51 1017.55 1018.19 1018.71 1018.87 1018.63 1018.51 1018.27 1017.95 1017.43 1017.07 1016.75 1016.23 1016.03 1015.99 1015.99 1016.59 1017.07 1017.23 1017.31 1017.39
1014.47 1014.79 1015.23 1015.35 1015.51 1015.67 1015.83 1016.15 1016.31 1016.47 1016.63 1016.67 1016.79 1016.91 1016.95 1016.95 1016.91 1016.95 1017.15 1017.31 1017.51 1017.63 1017.71 1017.95 1018.71 1018.87 1018.71 1018.59 1018.43 1018.07 1017.75 1017.35 1016.83 1016.19 1016.11 1016.07 1015.95 1016.47 1017.15 1017.51 1017.67 1017.59
1014.19 1014.71 1015.11 1015.27 1015.43 1015.47 1015.71 1016.03 1016.23 1016.43 1016.55 1016.63 1016.71 1016.75 1016.91 1016.83 1016.75 1016.95 1017.11 1017.31 1017.47 1017.63 1017.67 1017.79 1018.39 1018.75 1018.75 1018.71 1018.55 1018.31 1017.87 1017.55 1016.99 1016.75 1016.79 1016.79 1016.39 1016.27 1017.03 1017.43 1017.63 1017.59
1013.87 1014.31 1014.75 1015.19 1015.35 1015.43 1015.71 1015.91 1016.03 1016.23 1016.51 1016.63 1016.67 1016.67 1016.79 1016.71 1016.67 1016.87 1017.07 1017.31 1017.39 1017.63 1017.87 1017.99 1018.19 1018.67 1018.75 1018.75 1018.71 1018.47 1018.15 1017.79 1017.43 1017.51 1017.55 1017.35 1016.99 1016.39 1016.51 1016.75 1017.07 1017.39
Wind_Speed
3 3 3 3 3 2 2 4 4 2 3 2 3 5 4 3 5 4 4 4 6 4 4 5 5 5 5 4 3 4 5 7 5 4 4 6 6 7 9 9 7 7
3 3 3 2 2 2 2 3 2 4 4 3 3 3 4 2 3 3 3 3 5 4 4 4 4 5 5 5 4 5 4 6 6 6 5 5 6 6 8 8 7 7
3 3 3 3 3 1 1 2 2 2 2 3 3 1 3 2 3 2 3 2 3 3 4 4 4 5 6 6 5 5 5 5 7 5 7 6 5 6 7 7 7 7
3 2 2 3 2 3 2 1 1 1 4 3 3 2 3 3 4 3 3 4 3 3 3 4 4 4 5 6 5 5 5 4 5 5 6 6 6 5 6 6 9 6
2 2 2 3 2 2 1 4 2 2 3 2 2 3 3 2 3 3 2 3 3 3 3 3 4 4 4 5 5 5 4 5 5 5 5 7 6 6 5 6 8 8
3 4 3 3 2 2 2 3 5 4 4 3 3 3 4 2 4 3 4 4 3 4 5 5 5 5 5 6 5 5 5 6 6 8 7 7 6 6 5 6 8 9
3 2 2 3 2 2 2 2 1 3 2 3 2 0 2 4 4 3 5 5 6 4 4 5 6 6 4 4 4 6 6 5 6 7 8 6 6 7 5 6 8 9
3 3 3 2 2 2 2 3 2 1 2 2 3 4 3 4 5 6 3 4 6 8 7 7 7 7 6 4 4 5 5 4 5 6 6 6 5 7 6 5 8 9
3 3 3 3 2 2 3 3 1 2 3 2 3 4 4 3 3 4 6 5 5 6 7 7 8 8 7 10 7 6 7 6 6 6 7 7 7 7 8 7 8 8
4 3 3 2 3 2 2 2 1 1 2 2 2 2 3 2 3 4 6 4 5 6 7 8 9 8 9 9 11 10 7 7 6 6 7 6 6 6 7 8 7 8
4 4 3 3 3 2 2 1 1 1 0 3 2 2 2 2 3 4 4 5 5 7 7 8 9 9 9 10 9 9 10 9 6 6 5 6 6 5 6 7 7 7
3 3 3 3 3 3 1 1 1 2 1 2 2 2 2 3 4 3 3 6 7 7 8 8 8 8 9 9 9 10 9 10 8 7 7 6 6 6 6 5 6 7
4 4 4 3 2 2 1 1 2 1 3 3 2 3 3 3 4 4 3 5 6 7 8 8 8 9 8 9 9 9 9 9 9 6 7 6 6 6 7 7 7 7
3 3 4 3 3 2 2 1 1 2 1 2 2 3 3 4 4 4 3 4 6 6 7 7 7 8 9 8 8 8 8 8 10 6 6 5 7 6 5 5 5 6
3 3 3 3 3 3 3 2 2 1 1 2 1 3 3 3 3 4 5 5 6 6 7 7 6 6 6 6 7 8 8 9 9 8 5 5 6 7 7 7 6 5
5 4 5 3 3 3 3 2 2 2 1 2 3 2 2 3 3 3 5 5 5 6 7 6 5 5 8 11 7 5 6 7 8 7 6 6 6 7 6 8 7 7
6 5 4 5 3 3 3 3 3 2 1 3 2 2 2 3 2 4 4 3 5 6 6 6 4 5 11 12 13 12 7 6 8 6 5 6 7 7 7 8 9 8
6 6 6 5 4 5 4 3 2 3 3 3 2 2 2 2 2 3 3 2 3 6 6 5 4 8 11 12 12 13 10 6 6 6 4 5 6 7 7 7 8 8
7 7 6 5 5 4 3 3 2 3 3 4 3 3 3 2 3 2 2 2 2 6 6 6 4 7 10 11 12 13 13 9 6 7 3 4 6 6 6 7 7 7
7 7 7 5 4 4 3 3 3 3 2 2 3 2 2 3 3 2 2 2 2 4 7 5 5 7 10 12 11 12 13 10 5 5 3 3 5 5 5 5 6 6
7 7 7 7 6 5 4 4 3 2 2 2 1 2 2 2 3 3 2 2 2 3 6 5 4 7 10 12 12 13 14 10 7 1 3 2 3 6 4 5 5 6
7 6 6 6 6 5 5 5 4 3 2 2 2 2 2 2 2 2 2 3 2 3 4 5 5 8 10 11 12 13 13 6 7 5 2 2 3 7 5 5 5 5
8 7 7 7 7 6 6 5 4 3 2 2 2 3 2 2 2 2 2 3 3 3 3 6 5 7 10 11 11 13 10 5 6 3 4 3 3 7 6 6 6 6
8 8 8 7 7 7 6 5 4 3 2 2 2 2 2 2 2 2 3 3 3 3 3 4 4 6 10 10 11 13 9 5 6 4 3 3 3 7 7 7 9 15
8 8 7 6 7 6 6 6 4 4 3 2 2 2 2 2 2 3 3 3 3 2 4 4 5 5 9 9 10 12 9 5 6 6 6 7 6 3 8 6 5 9
7 8 7 6 6 5 5 5 4 4 4 2 2 3 3 2 1 3 2 3 2 3 4 4 3 4 6 8 9 10 11 6 4 6 6 6 6 4 5 4 4 6
Wind_Direction
39 38 21 59 64 46 11 345 345 12 98 2 25 351 0 47 341 341 0 353 323 354 358 353 354 344 346 356 359 354 5 345 358 350 10 357 350 350 351 349 2 360
81 67 45 36 84 345 93 330 3 357 15 28 48 4 324 23 349 333 341 347 321 346 353 348 353 345 350 347 356 359 14 353 352 352 355 8 354 354 350 348 350 5
38 56 82 55 340 63 65 131 324 63 24 4 3 12 332 16 320 328 323 332 314 338 348 345 348 358 350 351 357 359 2 0 353 349 357 356 354 0 353 348 347 8
96 69 42 48 30 13 3 5 57 33 89 353 3 355 352 5 299 5 317 354 305 1 343 341 356 10 355 343 356 355 360 355 343 343 7 357 353 356 358 352 350 8
103 93 66 64 27 15 12 10 43 19 84 174 19 355 345 327 324 0 341 333 331 357 335 9 351 17 356 345 357 348 359 351 334 348 21 359 349 354 357 3 357 6
51 58 58 41 49 356 40 39 7 25 7 355 95 9 322 344 339 22 335 337 16 347 359 11 358 9 8 355 345 353 350 3 352 349 18 4 347 354 2 9 8 6
118 85 70 79 47 15 54 69 33 6 9 316 43 54 359 336 5 350 12 344 357 351 15 15 353 9 4 347 357 356 358 360 353 355 14 354 357 351 11 15 19 11
129 125 83 70 60 27 15 77 41 30 316 7 11 344 56 333 25 333 18 12 5 348 26 20 1 10 348 333 23 352 355 356 355 354 6 345 10 348 9 20 32 17
134 124 129 110 88 57 27 47 41 20 345 32 29 342 30 354 23 353 350 31 9 7 30 17 14 3 355 354 6 4 356 7 352 9 355 357 12 357 10 20 34 28
132 117 124 132 113 99 80 36 22 47 341 28 44 13 8 339 26 25 342 28 20 31 30 27 19 7 1 3 359 353 359 4 0 10 353 6 357 356 18 29 31 30
140 142 125 110 84 81 65 62 18 85 75 24 20 19 10 347 39 37 354 28 30 34 34 32 28 15 7 3 358 356 354 353 359 359 358 354 358 358 27 42 33 36
148 132 135 128 143 130 109 101 82 350 68 81 17 11 12 24 23 42 6 35 35 42 38 40 33 24 13 4 358 354 354 347 340 4 351 2 6 359 12 37 49 38
163 154 140 137 121 135 188 120 92 8 34 54 39 17 15 30 22 22 14 56 48 47 48 44 38 26 13 5 359 355 347 343 335 13 352 4 354 4 17 20 35 45
141 142 150 143 141 140 111 98 123 112 76 73 30 52 17 24 31 6 26 53 66 58 58 52 37 26 12 3 357 354 346 340 336 348 355 7 354 6 13 20 29 59
150 153 130 146 169 134 130 136 110 96 79 93 52 79 49 11 31 24 29 35 63 67 63 56 43 24 21 357 346 348 348 340 338 325 1 6 7 2 14 9 14 56
158 152 165 160 153 159 127 142 127 138 155 103 77 52 68 31 29 43 28 31 51 65 74 61 38 26 1 1 14 358 334 337 333 323 13 7 11 6 13 8 360 14
155 173 152 171 158 128 168 173 134 136 106 97 86 66 53 73 28 45 51 24 46 65 72 69 40 13 359 2 359 5 1 336 333 322 17 19 10 18 10 14 351 4
167 163 174 155 165 169 172 121 164 165 123 110 113 104 86 83 61 52 41 38 54 72 71 65 51 10 9 2 1 355 358 338 324 325 20 30 29 23 17 12 1 351
165 175 164 162 181 153 133 177 170 143 139 129 120 137 132 85 77 53 54 29 35 85 80 61 41 13 8 8 359 355 347 347 323 308 32 51 49 40 27 20 5 1
175 173 160 168 150 144 165 165 171 117 123 124 133 112 104 111 92 73 59 54 26 85 93 70 41 1 12 8 4 353 343 334 295 297 46 66 75 61 49 38 21 12
184 167 166 156 158 160 177 157 128 146 172 167 129 92 93 89 99 117 94 63 30 75 102 78 42 10 20 11 3 352 340 325 323 313 75 44 90 90 66 48 42 29
182 169 161 160 161 163 170 146 146 177 161 132 137 123 104 115 127 120 98 81 57 47 101 94 62 23 25 15 1 358 338 335 338 320 40 82 63 98 71 56 48 40
181 170 165 173 162 170 166 149 156 154 148 179 159 156 157 133 124 106 92 84 56 51 28 94 62 27 30 17 5 360 351 335 331 317 40 342 104 107 88 66 56 52
179 172 170 181 164 176 160 144 153 150 153 183 153 138 152 157 155 112 103 87 86 78 356 88 87 45 35 20 9 2 351 337 321 340 45 355 354 110 106 93 75 70
173 169 173 182 175 174 144 150 160 161 143 213 160 164 149 201 170 131 113 105 107 103 49 59 99 63 40 25 13 8 1 338 348 10 11 1 341 75 130 125 104 69
166 161 166 177 187 144 146 156 158 146 152 185 192 174 188 174 186 117 116 114 126 100 72 36 67 81 44 34 17 10 6 355 14 26 13 348 328 1 42 55 66 59